FW7733 Weather Reports


time (UTC)temp
C
wind
direction
speed
KPH
gust
KPH
rain 1hr
cm
rain 24hr
cm
rain mn
cm
humidity
%
barometer
mb
20260505234529 10 0 0.0 1.6 0.00 0.08 0.00 94 1009.4
20260505233029 10 0 1.6 4.8 0.00 0.08 0.00 94 1009.2
20260505231541 10 0 0.0 6.4 0.00 0.08 0.00 94 1009.3
20260505230033 10 0 1.6 4.8 0.00 0.08 0.00 94 1009.3
20260505224530 10 0 0.0 3.2 0.00 0.08 0.00 94 1009.4
20260505223032 10 0 0.0 3.2 0.00 0.08 0.00 93 1009.5
20260505221530 10 0 0.0 1.6 0.00 0.08 0.00 93 1009.4
20260505220035 10 214 0.0 1.6 0.00 0.08 0.00 93 1009.5
20260505214535 10 0 0.0 3.2 0.03 0.08 0.08 93 1009.7
20260505213033 10 0 0.0 3.2 0.03 0.08 0.08 93 1009.7
20260505211528 11 214 1.6 4.8 0.03 0.08 0.08 92 1009.8
20260505210030 11 0 0.0 3.2 0.00 0.05 0.05 92 1009.7
20260505204534 11 252 0.0 4.8 0.00 0.03 0.03 91 1010.0
20260505203032 10 0 0.0 3.2 0.00 0.03 0.03 91 1009.9
20260505201528 10 209 1.6 4.8 0.00 0.03 0.03 91 1009.7
20260505200039 10 0 0.0 6.4 0.00 0.03 0.03 91 1009.7
20260505194528 11 192 3.2 6.4 0.00 0.03 0.03 90 1009.4
20260505193030 11 0 0.0 3.2 0.00 0.03 0.03 90 1009.3
20260505191531 11 146 0.0 3.2 0.00 0.03 0.03 90 1009.4
20260505190036 11 0 0.0 4.8 0.00 0.03 0.03 90 1009.3
20260505184528 12 219 3.2 4.8 0.00 0.03 0.03 89 1009.2
20260505183031 12 0 0.0 3.2 0.00 0.03 0.03 87 1009.1
20260505181529 12 181 1.6 4.8 0.00 0.03 0.03 87 1009.1
20260505180032 13 188 0.0 3.2 0.00 0.03 0.03 86 1009.0
20260505174538 12 0 0.0 4.8 0.00 0.03 0.03 85 1008.9
20260505173028 12 0 1.6 4.8 0.00 0.03 0.03 84 1009.0
20260505171528 12 0 0.0 4.8 0.00 0.03 0.03 87 1009.2
20260505170027 12 0 0.0 3.2 0.03 0.03 0.03 83 1008.9
20260505164529 13 173 3.2 8.0 0.00 0.00 0.00 81 1008.8
20260505163031 13 38 1.6 8.0 0.00 0.00 0.00 79 1008.2
20260505161530 13 0 3.2 14.5 0.00 0.00 0.00 78 1007.9
20260505153029 15 254 1.6 12.9 0.00 0.00 0.00 74 1008.2
20260505151531 15 294 6.4 17.7 0.00 0.00 0.00 73 1008.0
20260505124530 17 0 3.2 14.5 0.00 0.00 0.00 68 1007.9
20260505123028 17 84 3.2 9.7 0.00 0.00 0.00 69 1008.0
20260505121528 16 17 3.2 11.3 0.00 0.00 0.00 72 1007.9
20260505120030 16 295 4.8 16.1 0.00 0.00 0.00 71 1008.0
20260505114527 16 54 4.8 12.9 0.00 0.00 0.00 77 1008.3
20260505113029 16 341 3.2 12.9 0.00 0.00 0.00 75 1008.4
20260505111535 15 344 1.6 9.7 0.00 0.00 0.00 75 1008.3
20260505094528 12 295 1.6 4.8 0.00 0.00 0.00 81 1008.8
20260505093028 12 26 0.0 6.4 0.00 0.00 0.00 82 1008.9
20260505091528 12 0 1.6 6.4 0.00 0.00 0.00 83 1009.0
20260505090037 12 5 3.2 8.0 0.00 0.00 0.00 85 1008.9
20260505084531 11 0 0.0 6.4 0.00 0.00 0.00 86 1008.9
20260505083028 11 0 3.2 6.4 0.00 0.00 0.00 86 1009.1
20260505081541 11 0 0.0 0.0 0.00 0.00 0.00 89 1009.2
20260505080028 11 0 0.0 3.2 0.00 0.00 0.00 90 1009.5
20260505074529 10 0 0.0 1.6 0.00 0.00 0.00 91 1009.5
20260505073043 10 0 0.0 0.0 0.00 0.00 0.00 91 1009.6
20260505071546 10 0 0.0 0.0 0.00 0.00 0.00 92 1009.8
20260505070029 10 0 0.0 0.0 0.00 0.00 0.00 92 1010.0
20260505064528 9 239 0.0 1.6 0.00 0.00 0.00 93 1010.0
20260505063029 9 0 0.0 0.0 0.00 0.00 0.00 94 1010.1
20260505061531 8 0 0.0 3.2 0.00 0.00 0.00 94 1010.0
20260505060028 8 0 0.0 1.6 0.00 0.00 0.00 95 1010.0
20260505054547 8 0 0.0 1.6 0.00 0.00 0.00 95 1010.0
20260505053038 8 260 0.0 3.2 0.00 0.00 0.00 95 1010.0
20260505051535 7 262 1.6 3.2 0.00 0.00 0.00 95 1009.8
20260505041528 7 0 0.0 0.0 0.00 0.00 0.00 95 1010.1
20260505040040 7 0 0.0 0.0 0.00 0.00 0.00 95 1010.0
20260505034529 7 0 0.0 0.0 0.00 0.00 0.00 95 1010.1
20260505033036 7 0 0.0 0.0 0.00 0.00 0.00 95 1010.0
20260505031529 7 0 0.0 4.8 0.00 0.00 0.00 95 1010.1
20260505030028 7 202 0.0 3.2 0.00 0.00 0.00 95 1010.3
20260505024527 7 202 0.0 6.4 0.00 0.00 0.00 95 1010.4
20260505023027 7 202 1.6 6.4 0.00 0.00 0.00 94 1010.6
20260505021530 7 0 0.0 0.0 0.00 0.00 0.00 94 1010.6
20260505020028 7 0 0.0 0.0 0.00 0.00 0.00 94 1010.7
20260505014530 7 232 0.0 3.2 0.00 0.00 0.00 94 1010.9
20260505013029 7 0 0.0 4.8 0.00 0.00 0.00 94 1010.9
20260505011528 7 0 0.0 0.0 0.00 0.00 0.00 93 1010.9
20260505010028 7 0 0.0 0.0 0.00 0.00 0.00 93 1011.0
20260505004533 7 0 0.0 1.6 0.00 0.00 0.00 93 1011.4
20260505003028 8 211 0.0 1.6 0.00 0.00 0.00 93 1011.7
20260505001528 8 0 0.0 0.0 0.00 0.00 0.00 92 1011.8
20260505000029 8 0 0.0 4.8 0.00 0.00 0.00 92 1012.0